This demonstration page uses our WeatherBlox Daily Observations layout. Learn more.

Left ArrowRight Arrow

34.02893, -84.19858

Hourly Observations for July 27, 2021

Temp ( °F °C ) Dew Point ( °F °C ) Humidity (%) Winds ( mph kmh ) Pressure ( in mb ) Visibility ( mi km ) Precip ( " mm )
12:53 am 00:53 Clear 74 23.3 72 22.2 94 94 Calm 29.98 1015 10 16 0.00 0.00
1:53 am 01:53 Clear 74 23.3 71 21.7 91 91 NNE 5 7 29.96 1015 10 16 0.00 0.00
2:53 am 02:53 Clear 74 23.3 71 21.7 91 91 Calm 29.94 1014 10 16 0.00 0.00
3:53 am 03:53 Clear 73 22.8 71 21.7 94 94 Calm 29.93 1014 10 16 0.00 0.00
4:53 am 04:53 Clear 72 22.2 71 21.7 97 97 Calm 29.95 1014 9 14 0.00 0.00
5:53 am 05:53 Partly Cloudy 72 22.2 70 21.1 94 94 Calm 29.95 1014 9 14 0.00 0.00
6:53 am 06:53 Mostly Sunny 72 22.2 71 21.7 97 97 Calm 29.97 1015 7 11 0.00 0.00
7:53 am 07:53 Sunny 74 23.3 72 22.2 94 94 Calm 29.98 1015 8 13 0.00 0.00
8:53 am 08:53 Sunny 78 25.6 73 22.8 85 85 Calm 29.99 1016 10 16 0.00 0.00
9:53 am 09:53 Sunny 81 27.2 72 22.2 74 74 Calm 29.99 1016 10 16 0.00 0.00
10:53 am 10:53 Sunny 84 28.9 72 22.2 67 67 Calm 29.98 1015 10 16 0.00 0.00
11:53 am 11:53 Mostly Sunny 87 30.6 73 22.8 63 63 NNW 5 7 29.99 1016 10 16 0.00 0.00
12:53 pm 12:53 Sunny 89 31.7 72 22.2 57 57 Calm 29.98 1015 10 16 0.00 0.00
1:53 pm 13:53 Sunny 90 32.2 72 22.2 56 56 VRB 3 6 29.96 1014 10 16 0.00 0.00
2:53 pm 14:53 Mostly Cloudy 90 32.2 71 21.7 54 54 Calm 29.93 1014 10 16 0.00 0.00
3:53 pm 15:53 Mostly Cloudy 92 33.3 72 22.2 52 52 Calm 29.91 1013 10 16 0.00 0.00
4:26 pm 16:26 Partly Cloudy with Thunderstorms 89 31.7 72 22.2 57 57 WSW 7 11 29.90 1013 10 16 0.00 0.00
4:41 pm 16:41 Mostly Cloudy with Nearby Thunderstorms 88 31.1 74 23.3 63 63 E 6 9 29.91 1013 10 16 0.00 0.00
4:49 pm 16:49 Mostly Cloudy with Thunderstorms 84 29 73 23 70 70 SE 3 6 29.91 1013 10 16 0.00 0.00
4:53 pm 16:53 Mostly Cloudy with Thunderstorms 85 29.4 75 23.9 72 72 Calm 29.92 1013 10 16 0.00 0.00
5:53 pm 17:53 Mostly Cloudy with Thunderstorms 79 26.1 69 20.6 72 72 NNW 21 33 29.95 1014 10 16 0.00 0.00
6:10 pm 18:10 Mostly Cloudy with Thunderstorms 76 24.4 68 20 77 77 W 16 26 29.96 1015 6 10 0.02 0.51
6:26 pm 18:26 Cloudy with Thunderstorms 73 22.8 70 21.1 90 90 SSE 9 15 29.97 1015 2 3 0.09 2.29
6:36 pm 18:36 Mostly Cloudy with Thunderstorms 73 22.8 71 21.7 94 94 VRB 3 6 29.95 1014 6 10 0.09 2.29
6:49 pm 18:49 Mostly Cloudy 73 23 72 22 94 94 SE 6 9 29.97 1015 10 16 0.09 2.29
6:53 pm 18:53 Mostly Cloudy 73 22.8 72 22.2 96 96 ESE 5 7 29.96 1015 10 16 0.09 2.29
7:13 pm 19:13 Partly Cloudy with Nearby Thunderstorms 74 23.3 72 22.2 94 94 Calm 29.97 1015 10 16 0.00 0.00
7:28 pm 19:28 Sunny 75 23.9 72 22.2 90 90 W 5 7 29.97 1015 10 16 0.00 0.00
7:53 pm 19:53 Mostly Sunny 74 23.3 72 22.2 94 94 W 6 9 29.96 1015 10 16 0.00 0.00
8:53 pm 20:53 Clear 74 23.3 71 21.7 91 91 Calm 29.96 1014 10 16 0.00 0.00
9:53 pm 21:53 Clear 73 22.8 72 22.2 96 96 Calm 29.96 1014 9 14 0.00 0.00
10:53 pm 22:53 Clear 74 23.3 71 21.7 91 91 Calm 29.97 1015 10 16 0.00 0.00
11:53 pm 23:53 Clear 74 23.3 71 21.7 91 91 Calm 29.96 1015 10 16 0.00 0.00

Powered by AerisWeather